Weather History for EICK - September, 2012

Change the Weather History Date:

Tuesday, September 18, 2012

  Actual Average Record
Temperature  
Mean Temperature 52 °F -  
Max Temperature 58 °F 58 °F 67 °F (2014)
Min Temperature 45 °F 47 °F 41 °F (2007)
Degree Days  
Heating Degree Days 14    
Growing Degree Days 2 (Base 50)    
Moisture  
Dew Point 43 °F    
Average Humidity 74    
Maximum Humidity 93    
Minimum Humidity 50    
Precipitation  
Precipitation 0.00 in 0.15 in - ()
Sea Level Pressure  
Sea Level Pressure 30.07 in    
Wind  
Wind Speed 11 mph ()    
Max Wind Speed 18 mph    
Max Gust Speed 30 mph    
Visibility 6.6 miles    
Events Rain    
Averages and records for this station are not official NWS values.
T = Trace of Precipitation, MM = Missing Value Source: Averaged Metar Reports

Daily Weather History Graph

Daily Weather History Graph

Search for Another Location

Airport or City:

Trip Planner

Search our weather history database for the weather conditions in past years. The results will help you decide how hot, cold, wet, or windy it might be!

Date:

Astronomy

Sep. 18, 2012 Rise Set
Actual Time 7:13 AM IST 7:40 PM IST
Civil Twilight 6:40 AM IST 8:14 PM IST
Nautical Twilight 5:59 AM IST 8:54 PM IST
Astronomical Twilight 5:17 AM IST 9:36 PM IST
Moon 10:26 AM IST (9/18) 8:23 PM IST (9/18)
Length of Visible Light 13h 34m
Length of Day
12h 26m
Waxing Crescent, 7% of the Moon is Illuminated
Sep 18
Waxing Crescent
Sep 22
First Quarter
Sep 30
Full
Oct 8
Last Quarter
Oct 15
New

Hourly Weather History & Observations

Time (IST) Temp. Windchill Dew Point Humidity Pressure Visibility Wind Dir Wind Speed Gust Speed Precip Events Conditions
12:00 AM 48.2 °F - 44.6 °F 87% 29.89 in - WSW 11.5 mph - N/A   Clear
12:30 AM 48.2 °F - 44.6 °F 87% 29.89 in 6.2 mi West 11.5 mph - N/A   Partly Cloudy
1:00 AM 48 °F - 44 °F 81% 29.92 in 19 mi WSW 11.2 mph - -   Scattered Clouds
1:00 AM 48.2 °F - 44.6 °F 87% 29.89 in 6.2 mi WSW 10.4 mph - N/A   Partly Cloudy
1:30 AM 48.2 °F - 44.6 °F 87% 29.89 in 6.2 mi WSW 11.5 mph - N/A   Partly Cloudy
2:00 AM 46.4 °F 41.9 °F 42.8 °F 87% 29.92 in 6.2 mi WSW 9.2 mph - N/A   Partly Cloudy
2:30 AM 48.2 °F - 44.6 °F 87% 29.92 in 6.2 mi West 8.1 mph - N/A   Partly Cloudy
3:00 AM 50.0 °F - 44.6 °F 82% 29.92 in 6.2 mi West 13.8 mph - N/A Rain Light Rain Showers
3:30 AM 48.2 °F - 44.6 °F 87% 29.92 in 6.2 mi West 10.4 mph - N/A   Partly Cloudy
4:00 AM 48.2 °F - 44.6 °F 87% 29.95 in 6.2 mi West 9.2 mph - N/A   Partly Cloudy
4:30 AM 48.2 °F - 44.6 °F 87% 29.95 in 6.2 mi West 10.4 mph - N/A   Partly Cloudy
5:30 AM 48.2 °F - 44.6 °F 87% 29.95 in 6.2 mi West 10.4 mph - N/A   Partly Cloudy
6:00 AM 48.2 °F - 44.6 °F 87% 29.98 in - West 6.9 mph - N/A   Clear
6:30 AM 46.4 °F 42.9 °F 44.6 °F 93% 29.98 in 6.2 mi West 6.9 mph - N/A   Partly Cloudy
7:00 AM 47 °F - 43 °F 81% 30.01 in 14 mi WNW 11.2 mph - -   Partly Cloudy
7:00 AM 48.2 °F - 42.8 °F 82% 29.98 in 6.2 mi WNW 11.5 mph - N/A   Partly Cloudy
7:30 AM 46.4 °F 41.9 °F 42.8 °F 87% 30.01 in 6.2 mi WNW 9.2 mph - N/A   Partly Cloudy
8:00 AM 46.4 °F 41.9 °F 42.8 °F 87% 30.01 in 6.2 mi West 9.2 mph - N/A   Partly Cloudy
8:30 AM 48.2 °F - 42.8 °F 82% 30.04 in 6.2 mi West 8.1 mph - N/A   Partly Cloudy
9:00 AM 50.0 °F - 44.6 °F 82% 30.04 in 6.2 mi WNW 12.7 mph - N/A   Partly Cloudy
9:30 AM 50.0 °F - 44.6 °F 82% 30.04 in 6.2 mi WNW 15.0 mph - N/A   Partly Cloudy
10:00 AM 51.8 °F - 42.8 °F 71% 30.06 in 6.2 mi NW 12.7 mph - N/A   Partly Cloudy
10:30 AM 51.8 °F - 44.6 °F 76% 30.06 in 6.2 mi NW 16.1 mph - N/A   Partly Cloudy
11:00 AM 53.6 °F - 42.8 °F 67% 30.06 in 6.2 mi NW 15.0 mph - N/A   Partly Cloudy
11:30 AM 55.4 °F - 42.8 °F 63% 30.09 in 6.2 mi NW 17.3 mph - N/A   Scattered Clouds
12:00 PM 55.4 °F - 42.8 °F 63% 30.09 in 6.2 mi NW 16.1 mph - N/A   Scattered Clouds
12:30 PM 57.2 °F - 41.0 °F 55% 30.09 in 6.2 mi NW 11.5 mph - N/A   Scattered Clouds
1:00 PM 54 °F - 43 °F 57% 30.13 in 31 mi NNW 15.7 mph - -   Partly Cloudy
1:00 PM 55.4 °F - 42.8 °F 63% 30.12 in 6.2 mi NNW 15.0 mph - N/A   Partly Cloudy
1:30 PM 57.2 °F - 42.8 °F 59% 30.09 in 6.2 mi NW 11.5 mph - N/A   Scattered Clouds
2:00 PM 57.2 °F - 42.8 °F 59% 30.12 in 6.2 mi NW 17.3 mph 29.9 mph N/A   Mostly Cloudy
2:30 PM 57.2 °F - 41.0 °F 55% 30.12 in 6.2 mi NW 13.8 mph - N/A   Scattered Clouds
3:00 PM 57.2 °F - 41.0 °F 55% 30.12 in 6.2 mi WNW 16.1 mph - N/A   Scattered Clouds
3:30 PM 55.4 °F - 41.0 °F 58% 30.12 in 6.2 mi NW 17.3 mph - N/A   Scattered Clouds
4:00 PM 57.2 °F - 42.8 °F 59% 30.12 in 6.2 mi WNW 15.0 mph - N/A   Scattered Clouds
4:30 PM 57.2 °F - 39.2 °F 51% 30.12 in 6.2 mi WNW 17.3 mph - N/A   Partly Cloudy
5:00 PM 57.2 °F - 42.8 °F 59% 30.15 in 6.2 mi NW 18.4 mph - N/A   Scattered Clouds
5:30 PM 55.4 °F - 42.8 °F 63% 30.15 in 6.2 mi NW 16.1 mph - N/A   Partly Cloudy
6:00 PM 55.4 °F - 41.0 °F 58% 30.15 in 6.2 mi NW 17.3 mph - N/A   Partly Cloudy
6:30 PM 55.4 °F - 41.0 °F 58% 30.18 in 6.2 mi NW 15.0 mph - N/A   Partly Cloudy
7:00 PM 54 °F - 41 °F 50% 30.20 in 25 mi WNW 13.4 mph - -   Partly Cloudy
7:00 PM 53.6 °F - 41.0 °F 62% 30.18 in 6.2 mi WNW 12.7 mph - N/A   Partly Cloudy
7:30 PM 53.6 °F - 42.8 °F 67% 30.18 in 6.2 mi NW 12.7 mph - N/A   Partly Cloudy
8:00 PM 51.8 °F - 42.8 °F 71% 30.21 in 6.2 mi NW 10.4 mph - N/A   Partly Cloudy
8:30 PM 50.0 °F - 42.8 °F 76% 30.21 in 6.2 mi WNW 8.1 mph - N/A   Partly Cloudy
9:00 PM 48.2 °F - 42.8 °F 82% 30.21 in 6.2 mi West 6.9 mph - N/A   Partly Cloudy
9:30 PM 48.2 °F - 42.8 °F 82% 30.24 in 6.2 mi West 6.9 mph - N/A   Partly Cloudy
10:00 PM 48.2 °F - 42.8 °F 82% 30.24 in 6.2 mi WNW 4.6 mph - N/A   Partly Cloudy
10:30 PM 48.2 °F - 42.8 °F 82% 30.24 in 6.2 mi NW 6.9 mph - N/A   Partly Cloudy
11:00 PM 48.2 °F - 41.0 °F 76% 30.24 in - WNW 6.9 mph - N/A   Clear
11:30 PM 46.4 °F 42.4 °F 41.0 °F 81% 30.24 in 6.2 mi WNW 8.1 mph - N/A   Partly Cloudy